METAR metoinfo z LKNA (Náměšť nad Oslavou

Orig link LKNA zde

 

LKNA 282000Z 33007KT CAVOK 09/00 Q1013 NOSIG RMK BLU BLU

 

 

Permanent link to this article: http://www.airfly.cz/2018/06/26/metar-metoinfo-z-lkna-namest-nad-oslavou/

Napsat komentář